Meteo Giornale » Osservazioni meteo Canada » London Ont
ore: 07:20 - Osservazioni Meteo London Ont
Lat. 43° 2' N Lon. 81° 9' W Alt. 278 metri s.l.m.
21 °C
Foschia
Temp. 24 Ore
20 °C
24 °C
Ovest/Sud-Ovest
7.4 Km/h
Dew point 21 °C
Umidità 100 %
Visibilità 10 Km
Il sole sorge alle ore 06:49
Il sole tramonta alle ore 19:59
| Data e Ora | Cielo e Fenomeni | T °C | DP °C | Um. % | Pres. hPa | Vis. km | Vento km/h | |
|---|---|---|---|---|---|---|---|---|
| Oggi h: 07:20 | Foschia | 21 | 21 | 100 | 1014 | 10 | O/SO 7.4 | |
| Oggi h: 07:00 | Nuvoloso | 21 | 21 | 100 | 1014 | 13 | N 5.5 | |
| Oggi h: 06:00 | Molto Nuvoloso | 21 | 21 | 100 | 1014 | 24 | O 7.4 | |
| Oggi h: 05:00 | Molto Nuvoloso | 22 | 21 | 94 | 1014 | 24 | O/SO 9.3 | |
| Oggi h: 04:00 | Molto Nuvoloso | 22 | 21 | 94 | 1013 | 24 | O/SO 9.3 | |
| Oggi h: 03:00 | Molto Nuvoloso | 23 | 20 | 83 | 1014 | 24 | O/SO 11.1 | |
| Oggi h: 02:00 | Coperto | 22 | 21 | 94 | 1014 | 24 | S/SO 9.3 | |
| Oggi h: 01:00 | Coperto | 22 | 21 | 94 | 1015 | 10 | S 9.3 | |
| Oggi h: 00:00 | Coperto | 22 | 21 | 94 | 1015 | 10 | S 7.4 | |
| Ieri h: 23:00 | Foschia | 22 | 21 | 94 | 1015 | 10 | S/SE 7.4 | |
| Ieri h: 22:00 | Foschia | 22 | 21 | 94 | 1015 | 10 | S/SE 9.3 | |
| Ieri h: 21:00 | Foschia | 22 | 21 | 94 | 1015 | 10 | S/SE 11.1 | |
| Ieri h: 20:17 | Foschia | 22 | 22 | 100 | 1016 | 10 | S 11.1 | |
| Ieri h: 20:00 | Pioggia Foschia | 23 | 22 | 94 | 1016 | 8 | S/SE 13 | |
| Ieri h: 19:56 | Pioggia Foschia | 23 | 22 | 94 | 1016 | 5 | S 13 | |
| Ieri h: 19:00 | Molto Nuvoloso | 23 | 22 | 94 | 1016 | 10 | S/SE 11.1 | |
| Ieri h: 18:00 | Foschia | 24 | 22 | 88 | 1016 | 10 | S/SE 11.1 | |
| Ieri h: 17:24 | Foschia | 24 | 22 | 88 | 1016 | 10 | S/SE 14.8 | |
| Ieri h: 17:14 | Foschia | 24 | 22 | 88 | 1016 | 10 | S/SE 13 | |
| Ieri h: 17:00 | Foschia | 23 | 22 | 94 | 1016 | 10 | S/SE 9.3 | |
| Ieri h: 16:15 | Foschia | 23 | 22 | 94 | 1016 | 10 | N 5.5 | |
| Ieri h: 16:00 | Pioggia Foschia | 23 | 22 | 94 | 1017 | 10 | SO 9.3 | |
| Ieri h: 15:52 | Pioggia Foschia | 23 | 22 | 94 | 1017 | 10 | O/SO 9.3 | |
| Ieri h: 15:10 | Pioggia Foschia | 23 | 22 | 94 | 1017 | 10 | N 3.7 | |
| Ieri h: 15:00 | Foschia | 23 | 22 | 94 | 1017 | 10 | O/SO 7.4 | |
| Ieri h: 14:34 | Foschia | 23 | 22 | 94 | 1017 | 10 | N 5.5 | |
| Ieri h: 14:00 | Pioggia Foschia | 22 | 22 | 100 | 1017 | 10 | N 3.7 | |
| Ieri h: 13:44 | Pioggia Foschia | 22 | 21 | 94 | 1017 | 10 | N 5.5 | |
| Ieri h: 13:31 | Foschia | 22 | 21 | 94 | 1018 | 10 | N 5.5 | |
| Ieri h: 13:00 | Pioggia Foschia | 22 | 22 | 100 | 1018 | 6 | O 11.1 | |
| Ieri h: 12:55 | Pioggia Foschia | 22 | 22 | 100 | 1018 | 6 | O 11.1 | |
| Ieri h: 12:48 | Pioggia Foschia | 22 | 22 | 100 | 1018 | 6 | O 11.1 | |
| Ieri h: 12:33 | Pioggia Foschia | 23 | 22 | 94 | 1018 | 6 | O 9.3 | |
| Ieri h: 12:00 | Pioggia Foschia | 23 | 22 | 94 | 1018 | 6 | O 11.1 | |
| Ieri h: 11:00 | Molto Nuvoloso | 24 | 22 | 88 | 1017 | 13 | S/SO 13 | |
| Ieri h: 10:29 | Molto Nuvoloso | 24 | 22 | 88 | 1017 | 13 | S/SO 14.8 | |
| Ieri h: 10:00 | Foschia | 22 | 22 | 100 | 1017 | 8 | S 9.3 | |
| Ieri h: 09:46 | Foschia | 21 | 21 | 100 | 1017 | 8 | S 7.4 | |
| Ieri h: 09:25 | Foschia | 21 | 21 | 100 | 1017 | 6 | SE 7.4 | |
| Ieri h: 09:00 | Pioggia Foschia | 21 | 21 | 100 | 1017 | 6 | N 5.5 | |
| Ieri h: 08:36 | Pioggia Foschia | 20 | 20 | 100 | 1017 | 6 | S/SE 9.3 | |
| Ieri h: 08:00 | Pioggia Foschia | 20 | 20 | 100 | 1017 | 6 | N 5.5 | |
| Ieri h: 07:54 | Pioggia Foschia | 20 | 20 | 100 | 1017 | 5 | S 7.4 | |
| Ieri h: 07:33 | Pioggia Foschia | 20 | 20 | 100 | 1018 | 3 | N 5.5 | |



